Location: Chequamegon National Forest
(46.1070°N, 90.8420°W)
Time: 12:27:23
(UTC-06:00)

Amateur Radio Satellites - All Passes

Search period start: 26 January 2015 11:57
Search period end: 27 January 2015 11:57
Location: Chequamegon National Forest, 46.1070°N, 90.8420°W

Satellite Date Start Highest point End Downlink Frequencies (MHz)
Time Altitude Azimuth
HUMSAT D 26 Jan 11:58:33 12:01:40 19° 296° (WNW) 12:04:39 437.325/437.525
Gurwin Techsat 1B 26 Jan 12:04:12 12:06:41 14° 56° (ENE) 12:09:22 435.225
50 SAT 26 Jan 12:04:55 12:07:57 20° 295° (WNW) 12:10:52 437.505
VELOX 1 26 Jan 12:17:20 12:20:27 18° 297° (WNW) 12:23:27 145.980
SWISSCUBE 26 Jan 12:17:22 12:19:01 12° 86° (E) 12:20:57 437.505
VERMONT LUNAR 26 Jan 12:19:04 12:22:16 33° 180° (S) 12:25:29 437.305
AIST 2 26 Jan 12:21:37 12:25:57 86° 235° (SW) 12:30:11 435.215
BEESAT 26 Jan 12:32:53 12:35:43 16° 89° (E) 12:38:44 436.000
SPROUT 26 Jan 12:33:00 12:37:23 87° 285° (WNW) 12:41:45 437.525
ITUPSAT 1 26 Jan 12:34:37 12:37:31 16° 89° (E) 12:40:37 437.325
CUBEBUG 1 26 Jan 12:35:15 12:38:54 25° 294° (WNW) 12:42:29 437.445
GONETS M04 26 Jan 12:35:50 12:44:34 75° 79° (ENE) 12:53:16
SO-50 26 Jan 12:40:57 12:45:06 31° 320° (NW) 12:49:22 436.795
PCSat 26 Jan 12:42:06 12:46:48 29° 42° (NE) 12:51:32 145.827
BEESAT 2 26 Jan 12:43:37 12:47:03 24° 245° (WSW) 12:50:22 435.950
AIST 1 26 Jan 12:49:45 12:53:11 23° 290° (WNW) 12:56:34
Oscar 19 26 Jan 12:53:45 12:58:57 70° 259° (WSW) 13:04:10 437.125/150
PHONESAT 2.4 26 Jan 12:58:40 13:01:59 34° 181° (S) 13:05:20 2401.200-2431.200
HORYU 2 26 Jan 13:00:48 13:02:27 12° 59° (ENE) 13:04:17 437.375
BEESAT 3 26 Jan 13:01:58 13:04:23 15° 248° (WSW) 13:06:36 437.485
ITAMSAT 1 26 Jan 13:02:41 13:07:43 56° 71° (ENE) 13:12:49 435.822/435.867
ESTCUBE 1 26 Jan 13:17:51 13:19:08 11° 302° (WNW) 13:20:14 437.505/2401.250
TISAT 1 26 Jan 13:21:52 13:25:38 29° 292° (WNW) 13:29:18 437.305
DANDE 26 Jan 13:30:05 13:33:11 13° 45° (NE) 13:36:20 436.750
Gurwin Techsat 1B 26 Jan 13:40:36 13:45:55 81° 74° (ENE) 13:51:16 435.225
AO-7 26 Jan 13:41:12 13:48:16 33° 55° (NE) 13:55:30 29.400- 29.500
KKS-1 26 Jan 13:45:53 13:48:49 17° 90° (E) 13:51:53 437.445
STARS 26 Jan 13:47:52 13:49:25 12° 86° (E) 13:51:12 437.465
SWISSCUBE 26 Jan 13:52:50 13:57:39 85° 283° (WNW) 14:02:27 437.505
VERMONT LUNAR 26 Jan 13:57:08 13:59:55 22° 197° (SSW) 14:02:43 437.305
RS-15 26 Jan 14:02:19 14:13:42 84° 53° (NE) 14:25:35 29.354- 29.394
AIST 2 26 Jan 14:03:21 14:03:55 10° 251° (WSW) 14:04:16 435.215
JAS-2 26 Jan 14:06:05 14:07:35 11° 56° (NE) 14:09:19 435.910
BEESAT 26 Jan 14:09:21 14:14:06 64° 287° (WNW) 14:18:49 436.000
ITUPSAT 1 26 Jan 14:11:11 14:15:57 63° 287° (WNW) 14:20:40 437.325
SPROUT 26 Jan 14:11:32 14:12:51 11° 301° (WNW) 14:13:58 437.525
CUSAT 1 26 Jan 14:15:04 14:20:46 26° 59° (ENE) 14:25:31 437.405
PCSat 26 Jan 14:25:15 14:30:35 57° 243° (WSW) 14:35:52 145.827
SO-50 26 Jan 14:25:57 14:27:13 11° 343° (NNW) 14:28:26 436.795
GONETS M04 26 Jan 14:33:47 14:40:39 26° 279° (W) 14:47:13
HORYU 2 26 Jan 14:33:59 14:38:30 89° 76° (ENE) 14:43:02 437.375
PHONESAT 2.4 26 Jan 14:37:12 14:40:05 22° 198° (SSW) 14:42:58 2401.200-2431.200
ITAMSAT 1 26 Jan 14:43:43 14:47:39 21° 269° (W) 14:51:28 435.822/435.867
M-CUBED/EXP-1 PRIME 26 Jan 15:03:10 15:05:52 23° 101° (E) 15:08:37 437.505
DANDE 26 Jan 15:11:35 15:18:58 58° 72° (ENE) 15:24:33 436.750
KKS-1 26 Jan 15:21:27 15:25:52 53° 288° (WNW) 15:30:14 437.445
STARS 26 Jan 15:22:04 15:26:34 77° 286° (WNW) 15:30:59 437.465
Gurwin Techsat 1B 26 Jan 15:23:38 15:26:40 15° 274° (W) 15:29:26 435.225
AO-7 26 Jan 15:32:13 15:40:35 70° 255° (WSW) 15:48:58 29.400- 29.500
SWISSCUBE 26 Jan 15:32:47 15:34:51 12° 302° (WNW) 15:36:44 437.505
AUBIESAT-1 26 Jan 15:38:37 15:41:53 58° 106° (ESE) 15:45:12 437.475
JAS-2 26 Jan 15:46:27 15:52:00 73° 74° (ENE) 15:57:14 435.910
CUSAT 1 26 Jan 15:57:46 16:04:33 57° 267° (W) 16:09:38 437.405
HORYU 2 26 Jan 16:15:17 16:15:57 10° 275° (W) 16:16:19 437.375
RS-15 26 Jan 16:15:39 16:25:08 31° 254° (WSW) 16:34:33 29.354- 29.394
Cubesat XI-IV 26 Jan 16:21:59 16:26:20 27° 63° (ENE) 16:30:48 437.490
O/OREOS (USA 219) 26 Jan 16:31:26 16:35:41 43° 108° (ESE) 16:39:59 437.305
MOZHAYETS 4 26 Jan 16:38:05 16:42:29 44° 98° (E) 16:46:51
M-CUBED/EXP-1 PRIME 26 Jan 16:38:12 16:40:53 22° 298° (WNW) 16:43:30 437.505
CUTE-I 26 Jan 16:42:17 16:47:08 38° 67° (ENE) 16:52:04 437.470
DANDE 26 Jan 16:55:55 17:01:46 26° 278° (W) 17:06:23 436.750
STARS 26 Jan 17:01:35 17:02:20 10° 303° (WNW) 17:02:52 437.465
AUBIESAT-1 26 Jan 17:15:36 17:16:29 11° 303° (WNW) 17:17:13 437.475
AO-7 26 Jan 17:30:39 17:35:09 14° 277° (W) 17:39:05 29.400- 29.500
JAS-2 26 Jan 17:34:29 17:37:48 15° 272° (W) 17:40:46 435.910
YUBILEINY 26 Jan 17:48:14 17:50:52 12° 72° (ENE) 17:54:09 435.215
SO-50 26 Jan 17:49:03 17:52:33 19° 32° (NNE) 17:56:10 436.795
Cubesat XI-IV 26 Jan 18:01:06 18:06:14 47° 261° (W) 18:11:24 437.490
PRISM 26 Jan 18:04:13 18:08:03 36° 97° (E) 18:11:55 437.425
O/OREOS (USA 219) 26 Jan 18:11:36 18:15:19 24° 308° (NW) 18:19:01 437.305
BRITE-PL 26 Jan 18:15:42 18:18:18 14° 57° (ENE) 18:21:12 437.365/2234.400
MOZHAYETS 4 26 Jan 18:15:55 18:19:29 22° 295° (WNW) 18:22:57
CUBESAT XI-V 26 Jan 18:21:54 18:26:21 42° 97° (E) 18:30:49 437.345
CUTE-I 26 Jan 18:22:33 18:27:18 32° 265° (W) 18:32:03 437.470
GOMX 1 26 Jan 18:26:45 18:28:59 13° 56° (NE) 18:31:30 467.674
CUTE 1.7 + AOD 2 26 Jan 18:43:51 18:46:02 14° 62° (ENE) 18:48:22 437.475
HO-68 26 Jan 18:44:45 18:50:57 34° 60° (ENE) 18:57:16 435.675
DOVE 4 26 Jan 18:52:03 18:55:01 16° 59° (ENE) 18:58:13 437.250
STRAND 1 26 Jan 18:54:15 18:59:21 59° 100° (E) 19:04:27 437.568
CINEMA 3 26 Jan 19:02:25 19:04:00 12° 57° (ENE) 19:05:49 145.822/145.860
SEEDS 26 Jan 19:17:10 19:20:38 25° 67° (ENE) 19:24:10 437.485
SO-50 26 Jan 19:28:56 19:33:53 82° 53° (NE) 19:38:50 436.795
YUBILEINY 26 Jan 19:37:34 19:46:01 62° 93° (E) 19:54:36 435.215
PRISM 26 Jan 19:40:08 19:43:25 23° 294° (WNW) 19:46:38 437.425
UWE-3 26 Jan 19:43:03 19:45:15 14° 60° (ENE) 19:47:39 435.000/436.395/437.385
COMPASS 1 26 Jan 19:47:21 19:51:20 41° 71° (ENE) 19:55:21 437.405
BRITE-PL 26 Jan 19:50:59 19:55:58 85° 76° (ENE) 20:01:26 437.365/2234.400
CANX-2 26 Jan 19:52:35 19:56:52 72° 75° (ENE) 20:01:10 2200.000
CUBESAT XI-V 26 Jan 19:59:49 20:03:37 24° 294° (WNW) 20:07:20 437.345
GOMX 1 26 Jan 20:01:13 20:06:14 78° 75° (ENE) 20:11:37 467.674
Oscar 11 26 Jan 20:08:44 20:12:37 33° 69° (ENE) 20:16:32 145.826/435.025
AAUSAT CUBESAT 2 26 Jan 20:15:40 20:19:52 74° 75° (ENE) 20:24:05 437.432
CUTE 1.7 + AOD 2 26 Jan 20:17:13 20:21:30 69° 259° (WSW) 20:25:48 437.475
DOVE 4 26 Jan 20:27:05 20:32:06 84° 256° (WSW) 20:37:24 437.250
DELFI C3 26 Jan 20:27:40 20:31:29 40° 71° (ENE) 20:35:20 145.870
CUBEBUG 2 26 Jan 20:30:38 20:35:04 41° 70° (ENE) 20:39:36 437.445
HO-68 26 Jan 20:31:26 20:38:26 56° 259° (W) 20:45:28 435.675
STRAND 1 26 Jan 20:34:19 20:38:12 21° 299° (WNW) 20:41:57 437.568
CINEMA 3 26 Jan 20:35:29 20:40:23 73° 74° (ENE) 20:45:26 145.822/145.860
UKube-1 26 Jan 20:42:12 20:46:19 45° 70° (ENE) 20:50:29 .
ZACube-1 26 Jan 20:50:54 20:55:17 46° 71° (ENE) 20:59:44 437.345
SEEDS 26 Jan 20:52:26 20:56:21 34° 264° (W) 21:00:15 437.485
DX 1 26 Jan 20:59:21 21:03:40 70° 74° (ENE) 21:08:02 434.975-435.025
FUNcube-1 26 Jan 21:03:42 21:08:13 60° 73° (ENE) 21:12:47 145.935
ESTCUBE 1 26 Jan 21:05:56 21:08:35 16° 62° (ENE) 21:11:24 437.505/2401.250
AISAT 26 Jan 21:10:34 21:14:37 36° 69° (ENE) 21:18:45 437.250
SO-50 26 Jan 21:10:58 21:13:55 15° 250° (WSW) 21:16:40 436.795
HUMSAT D 26 Jan 21:16:22 21:20:31 46° 72° (ENE) 21:24:44 437.325/437.525
UWE-3 26 Jan 21:16:30 21:21:11 86° 258° (WSW) 21:25:56 435.000/436.395/437.385
AIST 1 26 Jan 21:17:21 21:19:09 13° 63° (ENE) 21:21:10
50 SAT 26 Jan 21:19:05 21:22:53 37° 70° (ENE) 21:26:44 437.505
COMPASS 1 26 Jan 21:24:07 21:27:18 20° 269° (W) 21:30:22 437.405
CANX-2 26 Jan 21:31:37 21:33:25 12° 273° (W) 21:34:59 2200.000
BRITE-PL 26 Jan 21:32:49 21:35:26 13° 277° (W) 21:37:52 437.365/2234.400
YUBILEINY 26 Jan 21:35:46 21:43:30 33° 295° (WNW) 21:51:08 435.215
VELOX 1 26 Jan 21:39:58 21:44:22 69° 73° (ENE) 21:48:50 145.980
GOMX 1 26 Jan 21:42:08 21:45:09 15° 276° (W) 21:48:02 467.674
Oscar 11 26 Jan 21:45:08 21:48:51 26° 266° (W) 21:52:32 145.826/435.025
AAUSAT CUBESAT 2 26 Jan 21:54:41 21:56:08 11° 274° (W) 21:57:22 437.432
SPROUT 26 Jan 21:56:40 21:58:20 12° 60° (ENE) 22:00:12 437.525
CUBEBUG 1 26 Jan 21:57:17 22:01:23 43° 70° (ENE) 22:05:33 437.445
NANOSAT C BR1 26 Jan 21:58:36 22:00:49 14° 88° (E) 22:03:12 145.865
DELFI C3 26 Jan 22:03:55 22:06:56 19° 268° (W) 22:09:53 145.870
UNISAT 6 26 Jan 22:05:07 22:08:57 27° 93° (E) 22:12:46 437.425
ISS 26 Jan 22:06:55 22:08:40 14° 135° (SE) 22:10:31 145.825
CUBEBUG 2 26 Jan 22:07:59 22:11:57 25° 268° (W) 22:15:53 437.445
DOVE 4 26 Jan 22:09:04 22:10:52 11° 278° (W) 22:12:22 437.250
QB50P2 26 Jan 22:10:38 22:13:41 19° 91° (E) 22:16:51 145.880/145.840
CINEMA 3 26 Jan 22:15:16 22:18:14 15° 274° (W) 22:21:02 145.822/145.860
UKube-1 26 Jan 22:19:34 22:22:46 19° 269° (W) 22:25:52 .
QB50P1 26 Jan 22:20:41 22:24:09 24° 93° (E) 22:27:41 145.935-145.965
ZACube-1 26 Jan 22:28:21 22:31:55 21° 269° (W) 22:35:25 437.345
POLYITAN 1 26 Jan 22:33:16 22:37:10 32° 96° (E) 22:41:03 437.675
DX 1 26 Jan 22:38:29 22:40:30 13° 272° (W) 22:42:20 434.975-435.025
ANTELSAT 26 Jan 22:40:29 22:44:59 62° 101° (E) 22:49:20 437.575/2403.000
ESTCUBE 1 26 Jan 22:40:35 22:45:02 65° 258° (WSW) 22:49:31 437.505/2401.250
TISAT 1 26 Jan 22:41:05 22:44:49 31° 68° (ENE) 22:48:38 437.305
FUNcube-1 26 Jan 22:42:03 22:45:02 16° 272° (W) 22:47:50 145.935
BUGSAT 1 26 Jan 22:46:50 22:50:45 34° 97° (E) 22:54:41 437.445
AISAT 26 Jan 22:47:39 22:51:22 25° 267° (W) 22:55:03 437.250
TIGRISAT 26 Jan 22:49:54 22:54:27 76° 103° (ESE) 22:58:51 435.000
AIST 1 26 Jan 22:53:07 22:57:27 72° 263° (W) 23:01:47
HUMSAT D 26 Jan 22:53:26 22:56:37 19° 269° (W) 22:59:41 437.325/437.525
POPSAT HIP 1 26 Jan 22:54:37 22:58:52 53° 100° (E) 23:03:05 437.405
50 SAT 26 Jan 22:54:54 22:58:09 22° 268° (W) 23:01:21 437.505
UWE-3 26 Jan 22:57:42 22:58:34 10° 276° (W) 22:59:08 435.000/436.395/437.385
DUCHIFAT 1 26 Jan 22:58:55 23:03:12 58° 100° (E) 23:07:27 145.980
VELOX 1 26 Jan 23:19:18 23:21:32 13° 272° (W) 23:23:35 145.980
SWISSCUBE 26 Jan 23:25:55 23:29:17 20° 62° (ENE) 23:32:46 437.505
SPROUT 26 Jan 23:29:32 23:33:52 83° 256° (WSW) 23:38:14 437.525
NANOSAT C BR1 26 Jan 23:32:54 23:37:11 62° 287° (WNW) 23:41:25 145.865
CUBEBUG 1 26 Jan 23:34:44 23:38:01 20° 269° (W) 23:41:14 437.445
ISS 26 Jan 23:41:29 23:44:47 84° 147° (SSE) 23:48:06 145.825
BEESAT 26 Jan 23:41:43 23:45:33 25° 65° (ENE) 23:49:28 436.000
UNISAT 6 26 Jan 23:41:44 23:45:50 33° 292° (WNW) 23:49:46 437.425
ITUPSAT 1 26 Jan 23:43:48 23:47:40 26° 65° (ENE) 23:51:39 437.325
QB50P2 26 Jan 23:45:44 23:49:53 45° 289° (WNW) 23:53:59 145.880/145.840
GONETS M04 26 Jan 23:47:45 23:52:36 17° 76° (ENE) 23:57:54
QB50P1 26 Jan 23:56:12 00:00:10 36° 291° (WNW) 00:04:06 145.935-145.965
POLYITAN 1 27 Jan 00:09:20 00:13:02 27° 293° (WNW) 00:16:39 437.675
TISAT 1 27 Jan 00:17:04 00:20:42 26° 266° (W) 00:24:18 437.305
ANTELSAT 27 Jan 00:18:27 00:21:20 16° 299° (WNW) 00:24:01 437.575/2403.000
BUGSAT 1 27 Jan 00:22:35 00:26:08 25° 293° (WNW) 00:29:38 437.445
TIGRISAT 27 Jan 00:28:15 00:30:39 14° 300° (WNW) 00:32:50 435.000
POPSAT HIP 1 27 Jan 00:31:27 00:34:26 18° 297° (WNW) 00:37:16 437.405
DUCHIFAT 1 27 Jan 00:35:54 00:38:40 16° 297° (WNW) 00:41:18 145.980
KKS-1 27 Jan 00:46:37 00:50:04 23° 64° (ENE) 00:53:38 437.445
STARS 27 Jan 00:47:13 00:49:53 16° 61° (ENE) 00:52:43 437.465
AUBIESAT-1 27 Jan 00:56:57 00:59:00 14° 59° (ENE) 01:01:07 437.475
O/OREOS (USA 219) 27 Jan 01:00:06 01:03:20 19° 49° (NE) 01:06:39 437.305
SWISSCUBE 27 Jan 01:02:08 01:06:48 56° 259° (W) 01:11:31 437.505
Oscar 19 27 Jan 01:03:02 01:07:42 34° 95° (E) 01:12:23 437.125/150
ITAMSAT 1 27 Jan 01:14:09 01:17:16 16° 88° (E) 01:20:36 435.822/435.867
ISS 27 Jan 01:18:30 01:21:33 33° 350° (N) 01:24:36 145.825
BEESAT 27 Jan 01:18:43 01:23:14 42° 262° (W) 01:27:46 436.000
ITUPSAT 1 27 Jan 01:20:55 01:25:25 41° 262° (W) 01:29:56 437.325
GONETS M04 27 Jan 01:39:24 01:48:09 79° 96° (E) 01:56:54
M-CUBED/EXP-1 PRIME 27 Jan 01:54:11 01:58:13 61° 69° (ENE) 02:01:56 437.505
Gurwin Techsat 1B 27 Jan 01:54:45 01:59:09 27° 92° (E) 02:03:38 435.225
STARS 27 Jan 02:21:31 02:25:56 64° 259° (W) 02:30:24 437.465
KKS-1 27 Jan 02:22:14 02:26:30 43° 262° (W) 02:30:49 437.445
HORYU 2 27 Jan 02:24:30 02:26:52 14° 88° (E) 02:29:25 437.375
AIST 2 27 Jan 02:25:22 02:26:27 11° 109° (ESE) 02:27:44 435.215
AUBIESAT-1 27 Jan 02:29:38 02:33:40 59° 253° (WSW) 02:37:23 437.475
O/OREOS (USA 219) 27 Jan 02:38:40 02:43:14 63° 249° (WSW) 02:47:46 437.305
BEESAT 2 27 Jan 02:40:13 02:43:56 34° 118° (ESE) 02:47:45 435.950
Oscar 19 27 Jan 02:42:25 02:47:04 34° 294° (WNW) 02:51:39 437.125/150
DANDE 27 Jan 02:45:02 02:49:08 15° 77° (ENE) 02:53:51 436.750
ITAMSAT 1 27 Jan 02:52:11 02:57:24 72° 288° (WNW) 03:02:37 435.822/435.867
ISS 27 Jan 02:55:31 02:58:36 34° 11° (N) 03:01:41 145.825
BEESAT 3 27 Jan 02:56:40 03:00:41 56° 122° (ESE) 03:04:47 437.485
CUSAT 1 27 Jan 03:24:19 03:31:13 33° 86° (E) 03:38:31 437.405
PCSat 27 Jan 03:29:45 03:31:43 12° 104° (ESE) 03:33:59 145.827
AO-7 27 Jan 03:31:13 03:38:39 35° 95° (E) 03:46:08 29.400- 29.500
M-CUBED/EXP-1 PRIME 27 Jan 03:31:37 03:33:32 13° 264° (W) 03:35:13 437.505
Gurwin Techsat 1B 27 Jan 03:34:17 03:39:22 46° 291° (WNW) 03:44:25 435.225
GONETS M04 27 Jan 03:38:55 03:46:07 26° 299° (WNW) 03:53:04
MOZHAYETS 4 27 Jan 03:42:26 03:46:56 56° 73° (ENE) 03:51:27
HORYU 2 27 Jan 03:59:37 04:04:03 63° 288° (WNW) 04:08:27 437.375
AIST 2 27 Jan 04:00:11 04:04:27 90° 233° (SW) 04:08:48 435.215
BEESAT 2 27 Jan 04:18:26 04:22:11 32° 317° (NW) 04:25:58 435.950
DANDE 27 Jan 04:23:11 04:31:11 65° 95° (E) 04:39:47 436.750
RS-15 27 Jan 04:29:49 04:39:30 40° 110° (ESE) 04:49:27 29.354- 29.394
ISS 27 Jan 04:32:02 04:35:20 77° 210° (SSW) 04:38:39 145.825
ITAMSAT 1 27 Jan 04:34:00 04:36:07 12° 305° (NW) 04:37:59 435.822/435.867
BEESAT 3 27 Jan 04:35:50 04:39:10 22° 322° (NW) 04:42:28 437.485
STRAND 1 27 Jan 04:36:02 04:39:11 17° 59° (ENE) 04:42:29 437.568
JAS-2 27 Jan 04:36:16 04:41:39 51° 100° (E) 04:47:38 435.910
PRISM 27 Jan 04:57:17 05:01:06 38° 70° (ENE) 05:04:57 437.425
CUTE-I 27 Jan 04:58:47 05:00:33 12° 84° (E) 05:02:39 437.470
CUSAT 1 27 Jan 05:05:40 05:13:50 68° 285° (WNW) 05:22:14 437.405
PCSat 27 Jan 05:08:57 05:14:22 80° 122° (ESE) 05:19:51 145.827
MOZHAYETS 4 27 Jan 05:21:32 05:24:36 17° 271° (W) 05:27:30
AO-7 27 Jan 05:23:44 05:31:55 60° 296° (WNW) 05:39:59 29.400- 29.500
CUBESAT XI-V 27 Jan 05:27:49 05:32:18 54° 72° (ENE) 05:36:49 437.345
AIST 2 27 Jan 05:40:46 05:43:43 17° 327° (NNW) 05:46:37 435.215
YUBILEINY 27 Jan 05:44:32 05:52:21 35° 66° (ENE) 06:00:19 435.215
DANDE 27 Jan 06:07:42 06:15:17 36° 296° (WNW) 06:23:03 436.750
ISS 27 Jan 06:09:50 06:11:25 13° 226° (SW) 06:12:53 145.825
STRAND 1 27 Jan 06:12:45 06:17:51 76° 256° (WSW) 06:23:00 437.568
Cubesat XI-IV 27 Jan 06:15:29 06:20:48 57° 100° (E) 06:26:06 437.490
JAS-2 27 Jan 06:22:03 06:26:38 27° 295° (WNW) 06:31:28 435.910
PRISM 27 Jan 06:33:41 06:36:49 20° 267° (W) 06:39:52 437.425
CUTE-I 27 Jan 06:36:11 06:41:36 83° 104° (ESE) 06:47:00 437.470
RS-15 27 Jan 06:40:29 06:51:21 67° 314° (NW) 07:02:26 29.354- 29.394
CUSAT 1 27 Jan 06:52:54 06:58:37 19° 307° (NW) 07:03:58 437.405
PCSat 27 Jan 06:54:11 06:58:28 23° 322° (NW) 07:02:42 145.827
CUBESAT XI-V 27 Jan 07:06:59 07:10:09 18° 271° (W) 07:13:12 437.345
AO-7 27 Jan 07:18:10 07:23:11 17° 317° (NW) 07:27:52 29.400- 29.500
CANX-2 27 Jan 07:38:34 07:39:07 10° 85° (E) 07:39:54 2200.000
YUBILEINY 27 Jan 07:41:09 07:49:43 59° 268° (W) 07:58:15 435.215
BRITE-PL 27 Jan 07:53:45 07:58:32 28° 91° (E) 08:03:18 437.365/2234.400
Cubesat XI-IV 27 Jan 07:56:20 08:00:34 24° 298° (WNW) 08:04:42 437.490
HO-68 27 Jan 07:56:42 08:02:24 26° 91° (E) 08:08:16 435.675
CUTE 1.7 + AOD 2 27 Jan 08:01:13 08:03:58 17° 90° (E) 08:06:50 437.475
GOMX 1 27 Jan 08:01:32 08:05:43 23° 89° (E) 08:09:56 467.674
ANTELSAT 27 Jan 08:09:02 08:10:14 11° 58° (ENE) 08:11:40 437.575/2403.000
TIGRISAT 27 Jan 08:17:16 08:19:18 13° 59° (ENE) 08:21:31 435.000
CUTE-I 27 Jan 08:17:40 08:21:05 17° 302° (WNW) 08:24:18 437.470
DOVE 4 27 Jan 08:24:40 08:28:59 26° 91° (E) 08:33:15 437.250
CINEMA 3 27 Jan 08:29:46 08:32:39 16° 86° (E) 08:35:39 145.822/145.860
SEEDS 27 Jan 08:34:25 08:38:12 32° 95° (E) 08:41:59 437.485
NANOSAT C BR1 27 Jan 08:54:11 08:56:45 16° 62° (ENE) 08:59:28 145.865
RS-15 27 Jan 08:56:40 09:06:16 32° 344° (NNW) 09:16:01 29.354- 29.394
COMPASS 1 27 Jan 09:04:07 09:08:15 56° 100° (E) 09:12:21 437.405
UWE-3 27 Jan 09:05:35 09:08:28 17° 88° (E) 09:11:26 435.000/436.395/437.385
UNISAT 6 27 Jan 09:06:19 09:10:35 35° 68° (ENE) 09:14:54 437.425
QB50P2 27 Jan 09:06:25 09:09:37 21° 65° (ENE) 09:12:56 145.880/145.840
CANX-2 27 Jan 09:11:29 09:15:45 80° 284° (WNW) 09:19:58 2200.000
QB50P1 27 Jan 09:16:13 09:19:44 26° 66° (ENE) 09:23:20 145.935-145.965
BEESAT 2 27 Jan 09:20:47 09:22:19 12° 27° (NNE) 09:23:58 435.950
POLYITAN 1 27 Jan 09:28:59 09:32:52 35° 69° (ENE) 09:36:50 437.675
Oscar 11 27 Jan 09:29:17 09:33:26 45° 98° (E) 09:37:35 145.826/435.025
VELOX 1 27 Jan 09:30:40 09:31:53 11° 86° (E) 09:33:21 145.980
BRITE-PL 27 Jan 09:31:46 09:37:18 50° 290° (WNW) 09:42:38 437.365/2234.400
AAUSAT CUBESAT 2 27 Jan 09:32:12 09:36:23 82° 284° (WNW) 09:40:32 437.432
CUTE 1.7 + AOD 2 27 Jan 09:36:08 09:40:14 48° 288° (WNW) 09:44:18 437.475
BEESAT 3 27 Jan 09:36:43 09:39:12 15° 32° (NNE) 09:41:45 437.485
GOMX 1 27 Jan 09:38:51 09:44:15 56° 289° (WNW) 09:49:26 467.674
BUGSAT 1 27 Jan 09:39:43 09:43:23 33° 69° (ENE) 09:47:10 437.445
DELFI C3 27 Jan 09:40:25 09:44:22 48° 99° (E) 09:48:17 145.870
ANTELSAT 27 Jan 09:41:36 09:46:19 76° 74° (ENE) 09:51:02 437.575/2403.000
YUBILEINY 27 Jan 09:42:04 09:44:48 11° 288° (WNW) 09:46:52 435.215
HO-68 27 Jan 09:43:39 09:50:47 68° 291° (WNW) 09:57:51 435.675
SO-50 27 Jan 09:48:22 09:50:38 14° 110° (ESE) 09:53:08 436.795
POPSAT HIP 1 27 Jan 09:49:55 09:54:06 55° 73° (ENE) 09:58:21 437.405
TIGRISAT 27 Jan 09:50:42 09:55:26 90° 131° (SE) 10:00:10 435.000
DUCHIFAT 1 27 Jan 09:53:55 09:58:07 60° 73° (ENE) 10:02:23 145.980
CUBEBUG 2 27 Jan 09:56:02 10:00:39 63° 100° (E) 10:05:06 437.445
VERMONT LUNAR 27 Jan 09:59:52 10:02:29 20° 161° (SSE) 10:05:08 437.305
DOVE 4 27 Jan 10:01:56 10:07:00 46° 290° (WNW) 10:11:50 437.250
UKube-1 27 Jan 10:03:18 10:07:37 58° 101° (E) 10:11:56 .
CINEMA 3 27 Jan 10:05:32 10:10:28 66° 287° (WNW) 10:15:09 145.822/145.860
SEEDS 27 Jan 10:10:26 10:13:57 26° 293° (WNW) 10:17:24 437.485
ZACube-1 27 Jan 10:13:33 10:18:03 67° 101° (E) 10:22:24 437.345
DX 1 27 Jan 10:21:22 10:25:48 88° 279° (W) 10:30:12 434.975-435.025
FUNcube-1 27 Jan 10:26:17 10:30:49 89° 114° (ESE) 10:35:10 145.935
NANOSAT C BR1 27 Jan 10:28:01 10:32:13 59° 259° (W) 10:36:29 145.865
50 SAT 27 Jan 10:30:59 10:34:53 42° 98° (E) 10:38:44 437.505
ESTCUBE 1 27 Jan 10:31:28 10:34:57 22° 92° (E) 10:38:33 437.505/2401.250
HUMSAT D 27 Jan 10:34:03 10:38:18 62° 101° (E) 10:42:29 437.325/437.525
AISAT 27 Jan 10:35:12 10:39:38 51° 100° (E) 10:44:03 437.250
UWE-3 27 Jan 10:40:59 10:45:28 55° 288° (WNW) 10:49:48 435.000/436.395/437.385
COMPASS 1 27 Jan 10:41:00 10:43:36 16° 297° (WNW) 10:46:04 437.405
QB50P2 27 Jan 10:41:14 10:45:19 42° 262° (W) 10:49:26 145.880/145.840
AIST 2 27 Jan 10:41:55 10:45:16 22° 37° (NE) 10:48:39 435.215
UNISAT 6 27 Jan 10:43:19 10:47:26 29° 266° (W) 10:51:31 437.425
PHONESAT 2.4 27 Jan 10:45:14 10:48:08 23° 163° (SSE) 10:51:04 2401.200-2431.200
Oscar 19 27 Jan 10:47:49 10:48:50 11° 54° (NE) 10:50:08 437.125/150
QB50P1 27 Jan 10:51:38 10:55:31 33° 264° (W) 10:59:26 145.935-145.965
BEESAT 2 27 Jan 10:57:29 11:01:35 50° 49° (NE) 11:05:37 435.950
VELOX 1 27 Jan 11:04:38 11:09:10 83° 287° (WNW) 11:13:41 145.980
POLYITAN 1 27 Jan 11:05:20 11:08:55 25° 267° (W) 11:12:29 437.675
Oscar 11 27 Jan 11:06:10 11:09:22 20° 295° (WNW) 11:12:27 145.826/435.025
RS-15 27 Jan 11:12:59 11:22:44 33° 18° (NNE) 11:32:55 29.354- 29.394
BEESAT 3 27 Jan 11:13:53 11:18:04 79° 53° (NE) 11:22:12 437.485
SPROUT 27 Jan 11:15:14 11:17:41 15° 88° (E) 11:20:18 437.525
BUGSAT 1 27 Jan 11:15:39 11:18:59 23° 267° (W) 11:22:20 437.445
DELFI C3 27 Jan 11:16:37 11:19:18 17° 296° (WNW) 11:21:52 145.870
CUBEBUG 1 27 Jan 11:19:45 11:24:10 62° 100° (E) 11:28:36 437.445
GOMX 1 27 Jan 11:20:44 11:21:18 10° 307° (NW) 11:21:34 467.674
ANTELSAT 27 Jan 11:21:20 11:23:45 13° 273° (W) 11:25:56 437.575/2403.000
AIST 1 27 Jan 11:25:11 11:29:21 58° 95° (E) 11:33:34
SO-50 27 Jan 11:25:58 11:30:34 82° 309° (NW) 11:35:21 436.795
POPSAT HIP 1 27 Jan 11:27:46 11:30:26 15° 271° (W) 11:32:57 437.405
TIGRISAT 27 Jan 11:31:31 11:32:58 11° 275° (W) 11:34:07 435.000
DUCHIFAT 1 27 Jan 11:32:04 11:34:28 14° 272° (W) 11:36:41 145.980
HO-68 27 Jan 11:33:06 11:37:23 17° 311° (NW) 11:41:23 435.675
CUBEBUG 2 27 Jan 11:33:51 11:36:54 17° 298° (WNW) 11:39:45 437.445
VERMONT LUNAR 27 Jan 11:36:56 11:40:07 32° 178° (S) 11:43:19 437.305
UKube-1 27 Jan 11:40:32 11:43:24 17° 298° (WNW) 11:46:08 .
CINEMA 3 27 Jan 11:46:07 11:46:46 10° 305° (NW) 11:47:10 145.822/145.860
ZACube-1 27 Jan 11:51:15 11:53:55 15° 299° (WNW) 11:56:25 437.345
